GW5385 Weather Reports


time (UTC)temp
C
wind
direction
speed
KPH
gust
KPH
rain 1hr
cm
rain 24hr
cm
rain mn
cm
humidity
%
barometer
mb
20260508121552 3 296 0.0 1.6 0.00 0.00 0.00 76 1014.4
20260508120051 3 295 0.0 3.2 0.00 0.00 0.00 76 1014.4
20260508114551 5 296 1.6 1.6 0.00 0.00 0.00 73 1014.6
20260508113044 6 295 0.0 3.2 0.00 0.00 0.00 73 1014.6
20260508111556 5 343 1.6 6.4 0.00 0.00 0.00 74 1014.6
20260508110037 5 355 0.0 3.2 0.00 0.00 0.00 72 1014.6
20260508104537 6 311 0.0 3.2 0.00 0.00 0.00 68 1014.6
20260508103036 6 297 0.0 1.6 0.00 0.00 0.00 67 1014.8
20260508101532 7 306 0.0 4.8 0.00 0.00 0.00 65 1014.8
20260508100031 7 299 0.0 4.8 0.00 0.00 0.00 64 1014.9
20260508094530 7 300 1.6 6.4 0.00 0.00 0.00 64 1014.7
20260508093028 8 331 1.6 6.4 0.00 0.00 0.00 62 1014.8
20260508091527 6 300 1.6 4.8 0.00 0.00 0.00 66 1014.8
20260508090026 6 307 0.0 3.2 0.00 0.00 0.00 66 1014.8
20260508084525 5 49 0.0 3.2 0.00 0.00 0.00 66 1014.9
20260508083021 5 95 0.0 3.2 0.00 0.00 0.00 61 1014.7
20260508081519 6 302 0.0 3.2 0.00 0.00 0.00 59 1014.6
20260508080018 7 280 1.6 6.4 0.00 0.00 0.00 56 1014.8
20260508074518 7 301 0.0 4.8 0.00 0.00 0.00 57 1014.7
20260508073050 7 301 3.2 6.4 0.00 0.00 0.00 58 1014.6
20260508071546 7 300 0.0 4.8 0.00 0.00 0.00 56 1014.7
20260508070043 9 342 1.6 6.4 0.00 0.00 0.00 54 1014.7
20260508064541 8 283 3.2 8.0 0.00 0.00 0.00 57 1014.6
20260508063038 7 330 0.0 8.0 0.00 0.00 0.00 62 1014.6
20260508061538 6 257 0.0 0.0 0.00 0.00 0.00 65 1014.5
20260508060031 6 333 0.0 0.0 0.00 0.00 0.00 63 1014.5
20260508054530 7 60 0.0 0.0 0.00 0.00 0.00 63 1014.5
20260508053031 7 62 1.6 3.2 0.00 0.00 0.00 60 1014.5
20260508051531 7 62 1.6 6.4 0.00 0.00 0.00 61 1014.5
20260508050025 7 295 0.0 3.2 0.00 0.00 0.00 60 1014.3
20260508044525 8 302 0.0 1.6 0.00 0.00 0.00 58 1014.4
20260508043125 10 298 0.0 3.2 0.00 0.00 0.00 56 1014.4
20260508041523 11 295 0.0 4.8 0.00 0.00 0.00 54 1014.4
20260508040022 11 282 0.0 3.2 0.00 0.00 0.00 53 1014.4
20260508034523 13 261 0.0 4.8 0.00 0.00 0.00 49 1014.3
20260508033020 13 288 4.8 9.7 0.00 0.00 0.00 47 1014.4
20260508031524 14 257 3.2 9.7 0.00 0.00 0.00 47 1014.2
20260508030049 15 240 8.0 12.9 0.00 0.00 0.00 45 1014.0
20260508024555 15 276 6.4 11.3 0.00 0.00 0.00 44 1013.9
20260508023045 15 245 0.0 6.4 0.00 0.00 0.00 47 1013.7
20260508021545 16 249 0.0 3.2 0.00 0.00 0.00 48 1013.5
20260508020045 16 255 0.0 0.0 0.00 0.00 0.00 48 1013.3
20260508014544 16 247 4.8 11.3 0.00 0.00 0.00 46 1013.2
20260508013041 16 255 6.4 12.9 0.00 0.00 0.00 46 1013.1
20260508011541 17 260 9.7 16.1 0.00 0.00 0.00 44 1013.0
20260508010041 17 229 8.0 20.9 0.00 0.00 0.00 43 1013.1
20260508004542 17 252 9.7 17.7 0.00 0.00 0.00 45 1013.2
20260508003035 17 274 11.3 17.7 0.00 0.00 0.00 42 1013.2
20260508001535 19 239 9.7 20.9 0.00 0.00 0.00 35 1012.9
20260508000035 18 274 6.4 12.9 0.00 0.00 0.00 32 1013.0
20260507234539 18 19 9.7 29.0 0.00 0.00 0.00 33 1012.8
20260507233033 20 7 14.5 22.5 0.00 0.00 0.00 30 1012.7
20260507231535 20 329 9.7 19.3 0.00 0.00 0.00 31 1012.7
20260507230029 20 312 9.7 33.8 0.00 0.00 0.00 29 1012.8
20260507224530 21 344 8.0 17.7 0.00 0.00 0.00 29 1012.8
20260507223025 19 328 8.0 25.7 0.00 0.00 0.00 30 1013.0
20260507221523 20 316 6.4 27.4 0.00 0.00 0.00 31 1013.1
20260507220022 20 296 8.0 17.7 0.00 0.00 0.00 30 1013.0
20260507214525 20 333 11.3 24.1 0.00 0.00 0.00 29 1013.1
20260507213020 21 345 14.5 24.1 0.00 0.00 0.00 29 1013.2
20260507211518 20 328 14.5 25.7 0.00 0.00 0.00 29 1013.3
20260507210016 20 314 8.0 19.3 0.00 0.00 0.00 29 1013.5
20260507204515 20 328 8.0 32.2 0.00 0.00 0.00 31 1013.5
20260507203017 20 26 12.9 29.0 0.00 0.00 0.00 30 1013.7
20260507203015 20 354 12.9 29.0 0.00 0.00 0.00 30 1013.7
20260507201512 19 289 11.3 22.5 0.00 0.00 0.00 32 1013.6
20260507200011 18 348 14.5 29.0 0.00 0.00 0.00 33 1013.7
20260507194509 18 349 16.1 27.4 0.00 0.00 0.00 33 1013.6
20260507193008 18 311 8.0 17.7 0.00 0.00 0.00 34 1013.4
20260507191504 20 331 4.8 22.5 0.00 0.00 0.00 33 1013.3
20260507190003 18 333 6.4 29.0 0.00 0.00 0.00 35 1013.5
20260507184501 18 290 3.2 19.3 0.00 0.00 0.00 36 1013.5
20260507183100 17 323 8.0 24.1 0.00 0.00 0.00 37 1013.7
20260507181558 18 322 17.7 32.2 0.00 0.00 0.00 35 1013.7
20260507180057 18 342 12.9 24.1 0.00 0.00 0.00 36 1013.8
20260507174605 18 337 8.0 20.9 0.00 0.00 0.00 37 1014.0
20260507173055 18 338 12.9 29.0 0.00 0.00 0.00 36 1014.1
20260507171523 18 328 14.5 32.2 0.00 0.00 0.00 36 1014.2
20260507170024 18 356 16.1 30.6 0.00 0.00 0.00 38 1014.2
20260507164520 18 352 12.9 29.0 0.00 0.00 0.00 38 1014.3
20260507163017 17 331 16.1 29.0 0.00 0.00 0.00 39 1014.1
20260507161522 17 347 16.1 30.6 0.00 0.00 0.00 39 1014.1
20260507160018 17 30 8.0 30.6 0.00 0.00 0.00 39 1014.0
20260507154511 17 323 4.8 12.9 0.00 0.00 0.00 40 1014.2
20260507153008 16 341 4.8 14.5 0.00 0.00 0.00 41 1014.1
20260507151506 16 300 3.2 8.0 0.00 0.00 0.00 41 1014.1
20260507150001 15 285 1.6 8.0 0.00 0.00 0.00 43 1014.2
20260507144615 14 306 0.0 4.8 0.00 0.00 0.00 45 1014.2
20260507143057 13 280 0.0 9.7 0.00 0.00 0.00 44 1014.1
20260507141615 13 343 3.2 16.1 0.00 0.00 0.00 43 1014.1
20260507140050 12 343 8.0 16.1 0.00 0.00 0.00 47 1014.2
20260507134547 10 38 3.2 6.4 0.00 0.00 0.00 55 1014.0
20260507133042 9 23 0.0 1.6 0.00 0.00 0.00 58 1013.8
20260507131543 8 60 0.0 1.6 0.00 0.00 0.00 58 1013.7
20260507130039 8 345 3.2 6.4 0.00 0.00 0.00 58 1013.6
20260507124535 7 333 3.2 8.0 0.00 0.00 0.00 59 1013.4
20260507123034 7 306 1.6 4.8 0.00 0.00 0.00 60 1013.3